ZIYUAN 3-04 (ZY 3-04)

Last updated on Thu Dec 18 2025 00:02:09 GMT+0000 (Coordinated Universal Time)

1 67131U 25300A 25350.24622558 .00001984 00000+0 83268-4 0 9999 2 67131 97.5012 64.3338 0011082 268.6179 91.3789 15.24627585 26
UTC large
Height (km)
Speed (km/s)
/
Latitude / Longitude
Inclination (degrees)
Orbital Period (minutes)
Azimuth
Elevation
Range (km)
Doppler Factor

Next 0 passes for location: London (51.5072 / 0.1276)

Sorry there are no passes over London.